Simultaneous Nadir Overpasses (SNOs) Predictions

Prediction of SNOs between GOES-15 and FY3D Satellite Orbit:

Table of predicted SNOs for the next 14.0 days since TLE Epoch: 8/3/2024
Index Date Time (GOES-15) GOES-15 Lat,Lon FY3D Lat,Lon Distance(km) Time Diff (sec)
1 08/05/2024 10:32:12 -0.45, 61.48 -0.66, 60.64 96.81 80
2 08/06/2024 10:16:17 -0.45, 61.51 0.38, 65.14 413.67 80
3 08/07/2024 22:38:19 0.45, 61.61 0.88, 59.86 200.65 80
4 08/08/2024 22:17:04 0.45, 61.65 -0.16, 64.36 309.05 80
5 08/10/2024 10:39:14 -0.45, 61.66 -1.07, 59.04 298.96 80
6 08/11/2024 10:23:20 -0.45, 61.69 -0.02, 63.54 211.23 80
7 08/12/2024 22:45:21 0.45, 61.79 1.26, 58.26 402.68 80
8 08/13/2024 22:24:07 0.44, 61.83 0.21, 62.76 106.29 80
9 08/16/2024 10:30:22 -0.44, 61.91 -0.43, 61.95 4.46 80
